sat.trackr.live / text

‹ back to catalog

STARLINK-2342

NORAD 47883 · 2021-021Z

PAYLOAD ACTIVE UNKNOWN

§ Identity

Operator
Country
US
Launch date
2021-03-14
Launch site
AFETR
Launch vehicle
Mass (kg)
RCS (m²)

Purposes: comms

External: N2YO · Heavens-Above · Gunter

§ Orbital elements

Epoch: 2026-05-24T18:05:08.362464Z

Period
92.54 min
Inclination
53.1559°
Eccentricity
0.0004395
Mean motion
15.56064717 rev/d
Perigee alt
396.1 km
Apogee alt
402.0 km
Semi-major
6,777.2 km
B*
1.0457e-3
RAAN
263.7009°
Arg perigee
291.2238°
Mean anomaly
68.8305°
Rev number
28,822

§ Raw data

STARLINK-23421 47883U 21021Z   26144.75356901  .00074459  00000+0  10457-2 0  99962 47883  53.1559 263.7009 0004395 291.2238  68.8305 15.56064717288229

JSON: /api/v1/satellites/47883 · /tle

For live sub-satellite position, see the globe view (requires WebGL).

§ Visibility from observer

Set your observer location to see the next 7 days of passes ≥ 10°. The values pass through the URL so the page stays shareable.

No JS? Fill the form by hand. The geolocation button needs JavaScript.

§ Radio — SatNOGS DB

ModeDescriptionDownlinkUplink
CW Ku-band 11325 MHz beacon 11.325 GHz
CW Ku-band 11575 MHz beacon 11.575 GHz
CW Ku-band 11950 MHz beacon 11.950 GHz
CW Ku-band 12450 MHz beacon 12.450 GHz

4 transmitters · refreshed weekly from db.satnogs.org